[{"OBJECT_NAME":"ONEWEB-0288","OBJECT_ID":"2021-075D","EPOCH":"2026-09-11T18:38:22.294752","MEAN_MOTION":13.12439988,"ECCENTRICITY":0.0001768,"INCLINATION":87.8995,"RA_OF_ASC_NODE":333.4662,"ARG_OF_PERICENTER":105.7239,"MEAN_ANOMALY":254.4085,"EPHEMERIS_TYPE":0,"CLASSIFICATION_TYPE":"U","NORAD_CAT_ID":49078,"ELEMENT_SET_NO":999,"REV_AT_EPOCH":24654,"BSTAR":-0.00075086,"MEAN_MOTION_DOT":-0.00000257,"MEAN_MOTION_DDOT":0},{"OBJECT_NAME":"ONEWEB-0289","OBJECT_ID":"2021-075E","EPOCH":"2026-09-12T05:28:46.597440","MEAN_MOTION":13.17650095,"ECCENTRICITY":0.00015111,"INCLINATION":87.9195,"RA_OF_ASC_NODE":348.5954,"ARG_OF_PERICENTER":93.7629,"MEAN_ANOMALY":266.3675,"EPHEMERIS_TYPE":0,"CLASSIFICATION_TYPE":"U","NORAD_CAT_ID":49079,"ELEMENT_SET_NO":999,"REV_AT_EPOCH":24566,"BSTAR":0.00018001573,"MEAN_MOTION_DOT":8.3e-7,"MEAN_MOTION_DDOT":0},{"OBJECT_NAME":"ONEWEB-0290","OBJECT_ID":"2021-075F","EPOCH":"2026-09-12T06:39:14.773248","MEAN_MOTION":13.17647074,"ECCENTRICITY":0.00014465,"INCLINATION":87.9211,"RA_OF_ASC_NODE":348.5649,"ARG_OF_PERICENTER":90.5842,"MEAN_ANOMALY":269.5455,"EPHEMERIS_TYPE":0,"CLASSIFICATION_TYPE":"U","NORAD_CAT_ID":49080,"ELEMENT_SET_NO":999,"REV_AT_EPOCH":24508,"BSTAR":0.0018407591,"MEAN_MOTION_DOT":0.00000728,"MEAN_MOTION_DDOT":0},{"OBJECT_NAME":"ONEWEB-0291","OBJECT_ID":"2021-075G","EPOCH":"2026-09-11T19:21:18.074880","MEAN_MOTION":13.1764922,"ECCENTRICITY":0.00015741,"INCLINATION":87.9206,"RA_OF_ASC_NODE":348.6593,"ARG_OF_PERICENTER":108.3739,"MEAN_ANOMALY":251.7564,"EPHEMERIS_TYPE":0,"CLASSIFICATION_TYPE":"U","NORAD_CAT_ID":49081,"ELEMENT_SET_NO":999,"REV_AT_EPOCH":24501,"BSTAR":-0.0001804546,"MEAN_MOTION_DOT":-5.7e-7,"MEAN_MOTION_DDOT":0},{"OBJECT_NAME":"ONEWEB-0293","OBJECT_ID":"2021-075H","EPOCH":"2026-09-12T05:04:28.593120","MEAN_MOTION":13.17650276,"ECCENTRICITY":0.00016667,"INCLINATION":87.9199,"RA_OF_ASC_NODE":348.5816,"ARG_OF_PERICENTER":99.6876,"MEAN_ANOMALY":260.4443,"EPHEMERIS_TYPE":0,"CLASSIFICATION_TYPE":"U","NORAD_CAT_ID":49082,"ELEMENT_SET_NO":999,"REV_AT_EPOCH":24509,"BSTAR":0.000042437438,"MEAN_MOTION_DOT":2.9e-7,"MEAN_MOTION_DDOT":0},{"OBJECT_NAME":"ONEWEB-0294","OBJECT_ID":"2021-075J","EPOCH":"2026-09-12T03:57:04.147776","MEAN_MOTION":13.12441568,"ECCENTRICITY":0.00015853,"INCLINATION":87.9001,"RA_OF_ASC_NODE":333.3931,"ARG_OF_PERICENTER":97.0945,"MEAN_ANOMALY":263.0364,"EPHEMERIS_TYPE":0,"CLASSIFICATION_TYPE":"U","NORAD_CAT_ID":49083,"ELEMENT_SET_NO":999,"REV_AT_EPOCH":24598,"BSTAR":-0.00050731078,"MEAN_MOTION_DOT":-0.0000017,"MEAN_MOTION_DDOT":0},{"OBJECT_NAME":"ONEWEB-0295","OBJECT_ID":"2021-075K","EPOCH":"2026-09-11T18:07:10.575264","MEAN_MOTION":13.17649322,"ECCENTRICITY":0.0001941,"INCLINATION":87.9209,"RA_OF_ASC_NODE":348.6763,"ARG_OF_PERICENTER":108.5552,"MEAN_ANOMALY":251.579,"EPHEMERIS_TYPE":0,"CLASSIFICATION_TYPE":"U","NORAD_CAT_ID":49084,"ELEMENT_SET_NO":999,"REV_AT_EPOCH":24499,"BSTAR":-0.00094174,"MEAN_MOTION_DOT":-0.00000353,"MEAN_MOTION_DDOT":0},{"OBJECT_NAME":"ONEWEB-0296","OBJECT_ID":"2021-075L","EPOCH":"2026-09-12T05:17:34.571328","MEAN_MOTION":13.12441815,"ECCENTRICITY":0.00016347,"INCLINATION":87.8988,"RA_OF_ASC_NODE":333.3883,"ARG_OF_PERICENTER":106.6026,"MEAN_ANOMALY":253.5283,"EPHEMERIS_TYPE":0,"CLASSIFICATION_TYPE":"U","NORAD_CAT_ID":49085,"ELEMENT_SET_NO":999,"REV_AT_EPOCH":24599,"BSTAR":0.00084023955,"MEAN_MOTION_DOT":0.00000315,"MEAN_MOTION_DDOT":0},{"OBJECT_NAME":"ONEWEB-0297","OBJECT_ID":"2021-075M","EPOCH":"2026-09-12T04:11:41.539776","MEAN_MOTION":13.12443461,"ECCENTRICITY":0.00018663,"INCLINATION":87.8984,"RA_OF_ASC_NODE":333.4012,"ARG_OF_PERICENTER":103.1934,"MEAN_ANOMALY":256.9403,"EPHEMERIS_TYPE":0,"CLASSIFICATION_TYPE":"U","NORAD_CAT_ID":49086,"ELEMENT_SET_NO":999,"REV_AT_EPOCH":24659,"BSTAR":-0.00088375964,"MEAN_MOTION_DOT":-0.00000305,"MEAN_MOTION_DDOT":0},{"OBJECT_NAME":"ONEWEB-0298","OBJECT_ID":"2021-075N","EPOCH":"2026-09-12T05:09:33.217920","MEAN_MOTION":13.1764937,"ECCENTRICITY":0.00019451,"INCLINATION":87.9204,"RA_OF_ASC_NODE":348.5831,"ARG_OF_PERICENTER":102.9684,"MEAN_ANOMALY":257.1665,"EPHEMERIS_TYPE":0,"CLASSIFICATION_TYPE":"U","NORAD_CAT_ID":49087,"ELEMENT_SET_NO":999,"REV_AT_EPOCH":24508,"BSTAR":0.00018217249,"MEAN_MOTION_DOT":8.4e-7,"MEAN_MOTION_DDOT":0},{"OBJECT_NAME":"ONEWEB-0299","OBJECT_ID":"2021-075P","EPOCH":"2026-09-12T05:11:46.038912","MEAN_MOTION":13.17649559,"ECCENTRICITY":0.00018623,"INCLINATION":87.9212,"RA_OF_ASC_NODE":348.5708,"ARG_OF_PERICENTER":106.4336,"MEAN_ANOMALY":253.7001,"EPHEMERIS_TYPE":0,"CLASSIFICATION_TYPE":"U","NORAD_CAT_ID":49088,"ELEMENT_SET_NO":999,"REV_AT_EPOCH":24506,"BSTAR":0.000047322406,"MEAN_MOTION_DOT":3.1e-7,"MEAN_MOTION_DDOT":0},{"OBJECT_NAME":"ONEWEB-0300","OBJECT_ID":"2021-075Q","EPOCH":"2026-09-12T04:00:43.167456","MEAN_MOTION":13.12442594,"ECCENTRICITY":0.00022744,"INCLINATION":87.8996,"RA_OF_ASC_NODE":333.3918,"ARG_OF_PERICENTER":102.1483,"MEAN_ANOMALY":257.9901,"EPHEMERIS_TYPE":0,"CLASSIFICATION_TYPE":"U","NORAD_CAT_ID":49089,"ELEMENT_SET_NO":999,"REV_AT_EPOCH":24661,"BSTAR":-0.00092297804,"MEAN_MOTION_DOT":-0.00000319,"MEAN_MOTION_DDOT":0},{"OBJECT_NAME":"ONEWEB-0301","OBJECT_ID":"2021-075R","EPOCH":"2026-09-12T03:37:33.661056","MEAN_MOTION":13.12440827,"ECCENTRICITY":0.00022292,"INCLINATION":87.8992,"RA_OF_ASC_NODE":333.3914,"ARG_OF_PERICENTER":99.7785,"MEAN_ANOMALY":260.3595,"EPHEMERIS_TYPE":0,"CLASSIFICATION_TYPE":"U","NORAD_CAT_ID":49090,"ELEMENT_SET_NO":999,"REV_AT_EPOCH":24597,"BSTAR":0.0002187162,"MEAN_MOTION_DOT":9.1e-7,"MEAN_MOTION_DDOT":0},{"OBJECT_NAME":"ONEWEB-0302","OBJECT_ID":"2021-075S","EPOCH":"2026-09-12T03:18:01.934496","MEAN_MOTION":13.12441589,"ECCENTRICITY":0.00015654,"INCLINATION":87.8987,"RA_OF_ASC_NODE":333.4032,"ARG_OF_PERICENTER":99.0887,"MEAN_ANOMALY":261.0419,"EPHEMERIS_TYPE":0,"CLASSIFICATION_TYPE":"U","NORAD_CAT_ID":49091,"ELEMENT_SET_NO":999,"REV_AT_EPOCH":24595,"BSTAR":0.0010882621,"MEAN_MOTION_DOT":0.00000404,"MEAN_MOTION_DDOT":0},{"OBJECT_NAME":"ONEWEB-0304","OBJECT_ID":"2021-075T","EPOCH":"2026-09-11T23:07:17.556096","MEAN_MOTION":13.17650069,"ECCENTRICITY":0.00018245,"INCLINATION":87.9202,"RA_OF_ASC_NODE":348.6353,"ARG_OF_PERICENTER":105.4843,"MEAN_ANOMALY":254.649,"EPHEMERIS_TYPE":0,"CLASSIFICATION_TYPE":"U","NORAD_CAT_ID":49092,"ELEMENT_SET_NO":999,"REV_AT_EPOCH":24500,"BSTAR":0.000098212775,"MEAN_MOTION_DOT":5.1e-7,"MEAN_MOTION_DDOT":0},{"OBJECT_NAME":"ONEWEB-0305","OBJECT_ID":"2021-075U","EPOCH":"2026-09-11T19:18:51.702912","MEAN_MOTION":13.17650103,"ECCENTRICITY":0.00018223,"INCLINATION":87.9209,"RA_OF_ASC_NODE":348.6581,"ARG_OF_PERICENTER":114.3379,"MEAN_ANOMALY":245.7943,"EPHEMERIS_TYPE":0,"CLASSIFICATION_TYPE":"U","NORAD_CAT_ID":49093,"ELEMENT_SET_NO":999,"REV_AT_EPOCH":24501,"BSTAR":0.00003423295,"MEAN_MOTION_DOT":2.6e-7,"MEAN_MOTION_DDOT":0},{"OBJECT_NAME":"ONEWEB-0308","OBJECT_ID":"2021-075V","EPOCH":"2026-09-11T17:59:21.971040","MEAN_MOTION":13.12442376,"ECCENTRICITY":0.000188,"INCLINATION":87.8996,"RA_OF_ASC_NODE":333.4771,"ARG_OF_PERICENTER":98.7186,"MEAN_ANOMALY":261.4155,"EPHEMERIS_TYPE":0,"CLASSIFICATION_TYPE":"U","NORAD_CAT_ID":49094,"ELEMENT_SET_NO":999,"REV_AT_EPOCH":24591,"BSTAR":0.0011706,"MEAN_MOTION_DOT":0.00000434,"MEAN_MOTION_DDOT":0},{"OBJECT_NAME":"ONEWEB-0309","OBJECT_ID":"2021-075W","EPOCH":"2026-09-11T23:02:24.094176","MEAN_MOTION":13.17647878,"ECCENTRICITY":0.00014138,"INCLINATION":87.9203,"RA_OF_ASC_NODE":348.6289,"ARG_OF_PERICENTER":95.8864,"MEAN_ANOMALY":264.2429,"EPHEMERIS_TYPE":0,"CLASSIFICATION_TYPE":"U","NORAD_CAT_ID":49095,"ELEMENT_SET_NO":999,"REV_AT_EPOCH":24500,"BSTAR":0.000022630423,"MEAN_MOTION_DOT":2.2e-7,"MEAN_MOTION_DDOT":0},{"OBJECT_NAME":"ONEWEB-0310","OBJECT_ID":"2021-075X","EPOCH":"2026-09-12T03:30:14.429376","MEAN_MOTION":13.12441293,"ECCENTRICITY":0.00018615,"INCLINATION":87.8986,"RA_OF_ASC_NODE":333.412,"ARG_OF_PERICENTER":98.977,"MEAN_ANOMALY":261.1569,"EPHEMERIS_TYPE":0,"CLASSIFICATION_TYPE":"U","NORAD_CAT_ID":49096,"ELEMENT_SET_NO":999,"REV_AT_EPOCH":24659,"BSTAR":0.00066204064,"MEAN_MOTION_DOT":0.00000251,"MEAN_MOTION_DDOT":0},{"OBJECT_NAME":"ONEWEB-0311","OBJECT_ID":"2021-075Y","EPOCH":"2026-09-12T06:29:31.708896","MEAN_MOTION":13.17649176,"ECCENTRICITY":0.00019665,"INCLINATION":87.9204,"RA_OF_ASC_NODE":348.5674,"ARG_OF_PERICENTER":114.2215,"MEAN_ANOMALY":245.9122,"EPHEMERIS_TYPE":0,"CLASSIFICATION_TYPE":"U","NORAD_CAT_ID":49097,"ELEMENT_SET_NO":999,"REV_AT_EPOCH":24509,"BSTAR":0.00018163022,"MEAN_MOTION_DOT":8.3e-7,"MEAN_MOTION_DDOT":0},{"OBJECT_NAME":"ONEWEB-0312","OBJECT_ID":"2021-075Z","EPOCH":"2026-09-12T05:02:01.642272","MEAN_MOTION":13.17647618,"ECCENTRICITY":0.00016991,"INCLINATION":87.9205,"RA_OF_ASC_NODE":348.5898,"ARG_OF_PERICENTER":108.4512,"MEAN_ANOMALY":251.6805,"EPHEMERIS_TYPE":0,"CLASSIFICATION_TYPE":"U","NORAD_CAT_ID":49098,"ELEMENT_SET_NO":999,"REV_AT_EPOCH":24506,"BSTAR":0.000084418255,"MEAN_MOTION_DOT":4.6e-7,"MEAN_MOTION_DDOT":0},{"OBJECT_NAME":"ONEWEB-0313","OBJECT_ID":"2021-075AA","EPOCH":"2026-09-11T23:41:06.858816","MEAN_MOTION":13.17649237,"ECCENTRICITY":0.00018529,"INCLINATION":87.9201,"RA_OF_ASC_NODE":348.6378,"ARG_OF_PERICENTER":104.9866,"MEAN_ANOMALY":255.1471,"EPHEMERIS_TYPE":0,"CLASSIFICATION_TYPE":"U","NORAD_CAT_ID":49099,"ELEMENT_SET_NO":999,"REV_AT_EPOCH":24502,"BSTAR":-0.00023943688,"MEAN_MOTION_DOT":-8e-7,"MEAN_MOTION_DDOT":0},{"OBJECT_NAME":"ONEWEB-0314","OBJECT_ID":"2021-075AB","EPOCH":"2026-09-12T06:10:06.111552","MEAN_MOTION":13.17649877,"ECCENTRICITY":0.00016247,"INCLINATION":87.9213,"RA_OF_ASC_NODE":348.5672,"ARG_OF_PERICENTER":110.9137,"MEAN_ANOMALY":249.2169,"EPHEMERIS_TYPE":0,"CLASSIFICATION_TYPE":"U","NORAD_CAT_ID":49100,"ELEMENT_SET_NO":999,"REV_AT_EPOCH":24503,"BSTAR":0.0001606975,"MEAN_MOTION_DOT":7.5e-7,"MEAN_MOTION_DDOT":0}]